FW8630 Weather Reports


time (UTC)temp
C
wind
direction
speed
KPH
gust
KPH
rain 1hr
cm
rain 24hr
cm
rain mn
cm
humidity
%
barometer
mb
20260504100104 9 237 8.0 14.5 0.00 0.00 0.00 86 1007.7
20260504081552 9 257 6.4 17.7 0.00 0.00 0.00 85 1006.8
20260504050021 8 125 0.0 4.8 0.00 0.00 0.00 89 1006.1
20260504044520 8 126 0.0 3.2 0.00 0.00 0.00 90 1006.2
20260504043031 8 126 1.6 4.8 0.00 0.00 0.00 90 1006.0
20260504041512 8 127 0.0 4.8 0.00 0.00 0.00 91 1006.8
20260504033002 8 126 1.6 3.2 0.00 0.00 0.00 95 1007.5
20260504031603 8 126 3.2 6.4 0.00 0.00 0.00 95 1007.3
20260504021556 7 142 1.6 6.4 0.00 0.00 0.00 93 1007.9
20260504020131 7 179 3.2 6.4 0.00 0.00 0.00 94 1008.6
20260504014603 7 98 1.6 9.7 0.00 0.00 0.00 94 1008.0
20260504013115 7 96 1.6 3.2 0.00 0.00 0.00 94 1008.4
20260504011552 7 97 1.6 16.1 0.00 0.00 0.00 94 1008.2
20260504010049 7 65 4.8 9.7 0.00 0.00 0.00 95 1008.4
20260504004616 7 70 3.2 9.7 0.00 0.00 0.00 95 1009.0
20260504003049 7 53 3.2 6.4 0.00 0.00 0.00 95 1009.3
20260504001615 7 134 1.6 4.8 0.00 0.00 0.00 95 1010.0
20260504000045 6 71 1.6 4.8 0.00 0.00 0.00 96 1009.4
20260503234540 6 71 1.6 4.8 0.00 0.00 0.00 97 1009.4
20260503233041 7 71 0.0 4.8 0.00 0.00 0.00 97 1009.4
20260503231536 7 71 1.6 6.4 0.00 0.00 0.00 97 1009.6
20260503230049 7 67 0.0 4.8 0.00 0.00 0.00 97 1009.7
20260503224531 7 67 1.6 4.8 0.00 0.00 0.00 97 1009.6
20260503223029 7 67 1.6 4.8 0.00 0.00 0.00 97 1009.8
20260503221525 8 67 0.0 4.8 0.00 0.00 0.00 96 1009.9
20260503220023 8 63 3.2 6.4 0.00 0.00 0.00 96 1010.0
20260503214521 8 59 1.6 6.4 0.00 0.00 0.00 96 1010.1
20260503213021 8 63 1.6 8.0 0.00 0.00 0.00 96 1010.1
20260503211518 8 50 3.2 6.4 0.00 0.00 0.00 96 1010.2
20260503210017 8 38 4.8 8.0 0.00 0.00 0.00 96 1010.0
20260503204514 9 31 1.6 4.8 0.00 0.00 0.00 96 1010.3
20260503203034 9 360 3.2 8.0 0.00 0.00 0.00 97 1010.2
20260503201511 9 327 1.6 4.8 0.00 0.00 0.00 97 1010.2
20260503200012 10 303 0.0 6.4 0.00 0.00 0.00 97 1010.2
20260503194517 10 221 1.6 4.8 0.00 0.00 0.00 96 1010.3
20260503193007 10 221 0.0 3.2 0.00 0.00 0.00 96 1010.0
20260503191506 10 221 0.0 3.2 0.00 0.00 0.00 96 1010.1
20260503190007 10 221 0.0 4.8 0.00 0.00 0.00 95 1010.3
20260503184505 10 222 0.0 4.8 0.00 0.00 0.00 95 1010.2
20260503183003 10 195 1.6 3.2 0.00 0.00 0.00 94 1010.0
20260503181505 10 195 1.6 4.8 0.00 0.00 0.00 95 1010.2
20260503180003 11 205 3.2 6.4 0.00 0.00 0.00 94 1010.1
20260503174502 11 252 3.2 6.4 0.00 0.00 0.00 93 1010.0
20260503173002 11 217 3.2 6.4 0.00 0.00 0.00 90 1009.7
20260503171502 12 232 4.8 8.0 0.00 0.00 0.00 89 1009.7